LOT29SA EPGD-EPRZ

Flight info

Callsign LOT29SA
Flight time 1h 13m
Altitude 21000
Route IRLUN N133 PENEX/N0412F270 N133 KOTEK L981 ETITI
Aircraft E75L/M-SDE3GILORVW/S

Departure

Time 2026-05-06 20:53
Airport Gdańsk Lech Wałęsa Airport (EPGD)

Arrival

Time 2026-05-06 22:07
Airport Rzeszów-Jasionka Airport (EPRZ)
Time Latitude Longitude Altitude Speed Heading
2026-05-06 19:50 54.38047 18.46368 457 ft 0 kts 23°
2026-05-06 20:03 54.38065 18.46381 457 ft 13 kts 23°
2026-05-06 20:04 54.38060 18.46378 457 ft 0 kts 23°
2026-05-06 20:47 54.38061 18.46379 457 ft 1 kts 30°
2026-05-06 20:47 54.38073 18.46388 456 ft 2 kts 22°
2026-05-06 20:47 54.38090 18.46400 457 ft 3 kts 23°
2026-05-06 20:47 54.38109 18.46402 457 ft 3 kts 335°
2026-05-06 20:48 54.38132 18.46351 457 ft 7 kts 295°
2026-05-06 20:48 54.38161 18.46236 457 ft 13 kts 293°
2026-05-06 20:48 54.38180 18.46138 457 ft 0 kts 266°
2026-05-06 20:48 54.38178 18.46131 457 ft 1 kts 246°
2026-05-06 20:49 54.38166 18.46108 456 ft 5 kts 215°
2026-05-06 20:49 54.38132 18.46078 457 ft 6 kts 207°
2026-05-06 20:49 54.38102 18.46013 457 ft 8 kts 258°
2026-05-06 20:49 54.38118 18.45891 455 ft 14 kts 292°
2026-05-06 20:50 54.38151 18.45742 452 ft 7 kts 275°
2026-05-06 20:50 54.38151 18.45741 452 ft 7 kts 274°
2026-05-06 20:51 54.38134 18.45644 452 ft 2 kts 236°
2026-05-06 20:51 54.38132 18.45642 452 ft 0 kts 212°
2026-05-06 20:51 54.38118 18.45631 452 ft 5 kts 204°
2026-05-06 20:51 54.38070 18.45599 452 ft 10 kts 200°
2026-05-06 20:52 54.38034 18.45586 453 ft 1 kts 175°
2026-05-06 20:52 54.38021 18.45595 453 ft 2 kts 149°
2026-05-06 20:52 54.38000 18.45648 454 ft 14 kts 115°
2026-05-06 20:52 54.37866 18.46194 455 ft 82 kts 114°
2026-05-06 20:53 54.37568 18.47374 506 ft 124 kts 102°
2026-05-06 20:53 54.37208 18.48875 879 ft 150 kts 107°
2026-05-06 20:53 54.36840 18.50567 1767 ft 143 kts 102°
2026-05-06 20:53 54.36496 18.52156 2637 ft 145 kts 108°
2026-05-06 20:54 54.36085 18.53789 3313 ft 150 kts 112°
2026-05-06 20:54 54.35608 18.55528 3722 ft 163 kts 117°
2026-05-06 20:54 54.35108 18.57271 4070 ft 164 kts 117°
2026-05-06 20:54 54.34670 18.59044 4442 ft 162 kts 114°
2026-05-06 20:55 54.34270 18.60806 4843 ft 157 kts 113°
2026-05-06 20:55 54.33934 18.62582 5124 ft 163 kts 111°
2026-05-06 20:55 54.33606 18.64489 5374 ft 169 kts 112°
2026-05-06 20:55 54.33033 18.66254 5506 ft 169 kts 142°
2026-05-06 20:56 54.32081 18.67183 5896 ft 155 kts 174°
2026-05-06 20:56 54.31030 18.67244 6142 ft 151 kts 197°
2026-05-06 20:56 54.30067 18.66688 6508 ft 140 kts 212°
2026-05-06 20:56 54.29208 18.66181 7030 ft 129 kts 199°
2026-05-06 20:57 54.28291 18.65769 7100 ft 143 kts 208°
2026-05-06 20:57 54.27406 18.64873 7163 ft 154 kts 218°
2026-05-06 20:57 54.26518 18.63743 7221 ft 164 kts 221°
2026-05-06 20:57 54.25611 18.62467 7265 ft 173 kts 221°
2026-05-06 20:58 54.24545 18.61406 7290 ft 184 kts 205°
2026-05-06 20:58 54.23252 18.60985 7303 ft 195 kts 189°
2026-05-06 20:58 54.21877 18.60942 7314 ft 200 kts 187°
2026-05-06 20:58 54.20473 18.60940 7345 ft 203 kts 186°
2026-05-06 20:59 54.19048 18.60965 7357 ft 206 kts 186°
2026-05-06 20:59 54.17686 18.60998 7371 ft 208 kts 185°
2026-05-06 20:59 54.16235 18.61035 7372 ft 209 kts 186°
2026-05-06 20:59 54.14778 18.61077 7375 ft 210 kts 185°
2026-05-06 21:00 54.13312 18.61117 7343 ft 212 kts 185°
2026-05-06 21:00 54.11834 18.61157 7319 ft 213 kts 185°
2026-05-06 21:00 54.10349 18.61201 7296 ft 214 kts 185°
2026-05-06 21:00 54.08869 18.61244 7320 ft 211 kts 185°
2026-05-06 21:01 54.07428 18.61287 7425 ft 207 kts 186°
2026-05-06 21:01 54.05981 18.61322 7433 ft 208 kts 186°
2026-05-06 21:01 54.04529 18.61360 7446 ft 209 kts 185°
2026-05-06 21:01 54.03070 18.61399 7455 ft 210 kts 185°
2026-05-06 21:02 54.01670 18.61447 7836 ft 192 kts 186°
2026-05-06 21:02 54.00368 18.61487 8194 ft 185 kts 187°
2026-05-06 21:02 53.99044 18.61508 8301 ft 198 kts 187°
2026-05-06 21:02 53.97638 18.61533 8493 ft 206 kts 186°
2026-05-06 21:03 53.96195 18.61571 8655 ft 214 kts 186°
2026-05-06 21:03 53.94677 18.61618 8807 ft 223 kts 186°
2026-05-06 21:03 53.93101 18.61662 8936 ft 231 kts 186°
2026-05-06 21:03 53.91466 18.61653 9011 ft 239 kts 187°
2026-05-06 21:04 53.89775 18.61622 9049 ft 248 kts 186°
2026-05-06 21:04 53.88025 18.61596 9089 ft 255 kts 186°
2026-05-06 21:04 53.86226 18.61580 9119 ft 262 kts 186°
2026-05-06 21:04 53.84385 18.61564 9168 ft 266 kts 186°
2026-05-06 21:05 53.82528 18.61549 9254 ft 268 kts 186°
2026-05-06 21:05 53.80669 18.61535 9377 ft 269 kts 186°
2026-05-06 21:05 53.78789 18.61521 9511 ft 270 kts 186°
2026-05-06 21:05 53.76908 18.61507 9648 ft 271 kts 186°
2026-05-06 21:06 53.75016 18.61727 9749 ft 278 kts 173°
2026-05-06 21:06 53.73173 18.62845 9863 ft 284 kts 164°
2026-05-06 21:06 53.71338 18.64168 9865 ft 289 kts 163°
2026-05-06 21:06 53.69481 18.65525 9876 ft 293 kts 163°
2026-05-06 21:07 53.67601 18.66897 9887 ft 296 kts 163°
2026-05-06 21:07 53.65705 18.68278 9895 ft 298 kts 163°
2026-05-06 21:07 53.63794 18.69666 9904 ft 300 kts 163°
2026-05-06 21:07 53.61872 18.71059 9906 ft 302 kts 163°
2026-05-06 21:08 53.59942 18.72454 9909 ft 303 kts 163°
2026-05-06 21:08 53.57997 18.73860 9911 ft 304 kts 163°
2026-05-06 21:08 53.56051 18.75263 9907 ft 305 kts 163°
2026-05-06 21:08 53.54095 18.76674 9906 ft 306 kts 163°
2026-05-06 21:09 53.52138 18.78084 9888 ft 306 kts 162°
2026-05-06 21:09 53.50165 18.79348 9889 ft 304 kts 168°
2026-05-06 21:09 53.48253 18.80298 9898 ft 303 kts 167°
2026-05-06 21:09 53.46224 18.81292 9910 ft 303 kts 169°
2026-05-06 21:10 53.44204 18.82323 9914 ft 304 kts 168°
2026-05-06 21:10 53.42196 18.83379 9925 ft 304 kts 168°
2026-05-06 21:10 53.40181 18.84445 9940 ft 304 kts 168°
2026-05-06 21:10 53.38189 18.85499 9931 ft 304 kts 168°
2026-05-06 21:11 53.36174 18.86568 9931 ft 304 kts 168°
2026-05-06 21:11 53.34161 18.87635 9935 ft 303 kts 168°
2026-05-06 21:11 53.32152 18.88695 9936 ft 303 kts 168°
2026-05-06 21:11 53.30142 18.89758 9940 ft 303 kts 168°
2026-05-06 21:12 53.28130 18.90819 9943 ft 303 kts 168°
2026-05-06 21:12 53.26123 18.91878 9944 ft 303 kts 168°
2026-05-06 21:12 53.24113 18.92933 9943 ft 303 kts 168°
2026-05-06 21:12 53.22106 18.93989 9929 ft 302 kts 167°
2026-05-06 21:13 53.20099 18.95044 9928 ft 302 kts 167°
2026-05-06 21:13 53.18091 18.96096 9931 ft 302 kts 167°
2026-05-06 21:13 53.16092 18.97123 10096 ft 294 kts 168°
2026-05-06 21:13 53.14175 18.98111 10483 ft 283 kts 168°
2026-05-06 21:14 53.12316 18.99061 10752 ft 276 kts 168°
2026-05-06 21:14 53.10491 18.99993 10969 ft 273 kts 168°
2026-05-06 21:14 53.08686 19.00915 11141 ft 271 kts 168°
2026-05-06 21:14 53.06878 19.01844 11247 ft 272 kts 168°
2026-05-06 21:15 53.05063 19.02785 11305 ft 275 kts 168°
2026-05-06 21:15 53.03223 19.03736 11313 ft 279 kts 168°
2026-05-06 21:15 53.01360 19.04700 11320 ft 282 kts 168°
2026-05-06 21:15 52.99481 19.05667 11338 ft 284 kts 168°
2026-05-06 21:16 52.97584 19.06648 11346 ft 286 kts 167°
2026-05-06 21:16 52.95672 19.07634 11344 ft 293 kts 167°
2026-05-06 21:16 52.93675 19.08652 11567 ft 303 kts 167°
2026-05-06 21:16 52.91647 19.09695 11830 ft 314 kts 167°
2026-05-06 21:17 52.90245 19.10411 12466 ft 320 kts 167°
2026-05-06 21:17 52.88130 19.11504 13808 ft 316 kts 167°
2026-05-06 21:17 52.86086 19.12563 15262 ft 308 kts 167°
2026-05-06 21:17 52.84074 19.13597 16551 ft 308 kts 168°
2026-05-06 21:18 52.81948 19.14676 17322 ft 325 kts 168°
2026-05-06 21:18 52.79702 19.15808 17739 ft 349 kts 167°
2026-05-06 21:18 52.77319 19.17023 18359 ft 364 kts 167°
2026-05-06 21:18 52.74911 19.18264 19468 ft 359 kts 167°
2026-05-06 21:19 52.72571 19.19473 20930 ft 346 kts 168°
2026-05-06 21:19 52.70290 19.20641 22076 ft 344 kts 168°
2026-05-06 21:19 52.67965 19.21813 22507 ft 360 kts 168°
2026-05-06 21:19 52.65479 19.23053 22471 ft 385 kts 168°
2026-05-06 21:20 52.62852 19.24378 22702 ft 401 kts 167°
2026-05-06 21:20 52.60189 19.25743 23595 ft 398 kts 167°
2026-05-06 21:20 52.57592 19.27077 24823 ft 383 kts 168°
2026-05-06 21:20 52.55124 19.28336 25995 ft 374 kts 168°
2026-05-06 21:21 52.52641 19.29584 26654 ft 379 kts 169°
2026-05-06 21:21 52.50062 19.30867 26615 ft 398 kts 168°
2026-05-06 21:21 52.47363 19.32216 26174 ft 410 kts 168°
2026-05-06 21:21 52.44627 19.33596 25293 ft 412 kts 168°
2026-05-06 21:22 52.41888 19.34977 23965 ft 413 kts 168°
2026-05-06 21:22 52.39141 19.36357 22182 ft 419 kts 167°
2026-05-06 21:22 52.36379 19.37745 21109 ft 409 kts 167°
2026-05-06 21:22 52.33804 19.39060 21830 ft 382 kts 168°
2026-05-06 21:23 52.31258 19.40325 22685 ft 382 kts 168°
2026-05-06 21:23 52.28719 19.41587 23686 ft 379 kts 168°
2026-05-06 21:23 52.26196 19.42841 24536 ft 379 kts 168°
2026-05-06 21:23 52.23662 19.44097 25186 ft 385 kts 168°
2026-05-06 21:24 52.21101 19.45365 25633 ft 395 kts 168°
2026-05-06 21:24 52.18404 19.46701 26012 ft 405 kts 168°
2026-05-06 21:24 52.15691 19.48048 26483 ft 410 kts 168°
2026-05-06 21:24 52.12956 19.49407 27131 ft 411 kts 168°
2026-05-06 21:25 52.10267 19.50742 27805 ft 410 kts 168°
2026-05-06 21:25 52.07490 19.52116 28402 ft 412 kts 168°
2026-05-06 21:25 52.04768 19.53458 28800 ft 418 kts 168°
2026-05-06 21:25 52.01956 19.54841 29064 ft 426 kts 168°
2026-05-06 21:26 51.99115 19.56239 29310 ft 431 kts 168°
2026-05-06 21:26 51.96195 19.57677 29560 ft 434 kts 168°
2026-05-06 21:26 51.93337 19.59082 29785 ft 436 kts 168°
2026-05-06 21:26 51.90437 19.60508 29989 ft 436 kts 168°
2026-05-06 21:27 51.87534 19.61931 30082 ft 436 kts 168°
2026-05-06 21:27 51.84623 19.63355 29974 ft 437 kts 168°
2026-05-06 21:27 51.81714 19.64777 29538 ft 437 kts 168°
2026-05-06 21:27 51.78813 19.66198 28662 ft 434 kts 167°
2026-05-06 21:28 51.75949 19.67691 27269 ft 432 kts 166°
2026-05-06 21:28 51.73092 19.69222 25740 ft 434 kts 166°
2026-05-06 21:28 51.70395 19.70682 26407 ft 399 kts 167°
2026-05-06 21:28 51.67718 19.72095 26436 ft 409 kts 167°
2026-05-06 21:29 51.64992 19.73535 26806 ft 409 kts 167°
2026-05-06 21:29 51.62351 19.74923 26588 ft 391 kts 167°
2026-05-06 21:29 51.59822 19.76277 26288 ft 370 kts 166°
2026-05-06 21:29 51.57450 19.77648 26064 ft 352 kts 165°
2026-05-06 21:30 51.55191 19.78957 25899 ft 330 kts 167°
2026-05-06 21:30 51.53116 19.80056 26349 ft 295 kts 168°
2026-05-06 21:30 51.51164 19.81110 25478 ft 302 kts 168°
2026-05-06 21:30 51.49344 19.82025 26382 ft 248 kts 171°
2026-05-06 21:31 51.47696 19.82785 26081 ft 245 kts 172°
2026-05-06 21:31 51.46094 19.83540 25956 ft 236 kts 171°
2026-05-06 21:31 51.44569 19.84354 25861 ft 227 kts 168°
2026-05-06 21:31 51.43106 19.85190 25775 ft 214 kts 171°
2026-05-06 21:32 51.41731 19.85858 25774 ft 206 kts 173°
2026-05-06 21:32 51.38682 19.87295 26256 ft 242 kts 170°
2026-05-06 21:32 51.37073 19.88139 26589 ft 259 kts 169°
2026-05-06 21:33 51.35206 19.89079 26175 ft 303 kts 169°
2026-05-06 21:33 51.33016 19.90183 25506 ft 349 kts 168°
2026-05-06 21:33 51.30721 19.91265 25825 ft 334 kts 168°
2026-05-06 21:33 51.28621 19.92431 25942 ft 310 kts 167°
2026-05-06 21:34 51.26640 19.93544 26004 ft 288 kts 168°
2026-05-06 21:34 51.24813 19.94536 26030 ft 272 kts 169°
2026-05-06 21:34 51.23064 19.95453 26037 ft 256 kts 169°
2026-05-06 21:34 51.21422 19.96309 26028 ft 242 kts 170°
2026-05-06 21:35 51.19858 19.97111 26006 ft 234 kts 171°
2026-05-06 21:35 51.18281 19.97903 26255 ft 245 kts 171°
2026-05-06 21:35 51.16598 19.98739 26310 ft 259 kts 170°
2026-05-06 21:35 51.14864 19.99627 26350 ft 265 kts 169°
2026-05-06 21:36 51.13085 20.00539 25984 ft 274 kts 169°
2026-05-06 21:36 51.11302 20.01466 25963 ft 262 kts 169°
2026-05-06 21:36 51.09602 20.02358 26096 ft 258 kts 169°
2026-05-06 21:36 51.07869 20.03240 26105 ft 264 kts 170°
2026-05-06 21:37 51.06137 20.04115 26089 ft 266 kts 169°
2026-05-06 21:37 51.04356 20.05025 26039 ft 265 kts 169°
2026-05-06 21:37 51.02630 20.05911 26043 ft 263 kts 169°
2026-05-06 21:37 51.00880 20.06805 26057 ft 265 kts 169°
2026-05-06 21:38 50.99115 20.07704 26078 ft 267 kts 169°
2026-05-06 21:38 50.97346 20.08604 26065 ft 267 kts 169°
2026-05-06 21:38 50.95579 20.09506 26050 ft 266 kts 169°
2026-05-06 21:38 50.93819 20.10403 26050 ft 266 kts 169°
2026-05-06 21:39 50.92058 20.11297 26065 ft 266 kts 169°
2026-05-06 21:39 50.90296 20.12192 26068 ft 266 kts 169°
2026-05-06 21:39 50.88529 20.13088 26053 ft 266 kts 169°
2026-05-06 21:39 50.86766 20.13983 26052 ft 267 kts 169°
2026-05-06 21:40 50.84989 20.14882 26070 ft 269 kts 169°
2026-05-06 21:40 50.83210 20.15783 26070 ft 269 kts 169°
2026-05-06 21:40 50.81431 20.16684 26063 ft 268 kts 169°
2026-05-06 21:40 50.79655 20.17583 26060 ft 268 kts 169°
2026-05-06 21:41 50.77876 20.18481 26064 ft 268 kts 169°
2026-05-06 21:41 50.76100 20.19378 26067 ft 268 kts 169°
2026-05-06 21:41 50.74324 20.20273 26056 ft 269 kts 169°
2026-05-06 21:41 50.72536 20.21174 26073 ft 270 kts 169°
2026-05-06 21:42 50.70751 20.22072 26064 ft 270 kts 169°
2026-05-06 21:42 50.68969 20.23016 26062 ft 272 kts 164°
2026-05-06 21:42 50.67272 20.24387 26071 ft 278 kts 155°
2026-05-06 21:42 50.65727 20.26296 26071 ft 286 kts 142°
2026-05-06 21:43 50.64444 20.28746 26072 ft 295 kts 129°
2026-05-06 21:43 50.63491 20.31638 26080 ft 300 kts 120°
2026-05-06 21:43 50.62691 20.34691 26076 ft 302 kts 118°
2026-05-06 21:43 50.61919 20.37770 26059 ft 302 kts 118°
2026-05-06 21:44 50.61141 20.40830 26067 ft 301 kts 118°
2026-05-06 21:44 50.60350 20.43883 26042 ft 301 kts 118°
2026-05-06 21:44 50.59554 20.46926 26048 ft 300 kts 118°
2026-05-06 21:44 50.58789 20.49835 26056 ft 300 kts 119°
2026-05-06 21:45 50.57983 20.52865 26070 ft 300 kts 119°
2026-05-06 21:45 50.57175 20.55905 26076 ft 301 kts 119°
2026-05-06 21:45 50.56372 20.58941 26066 ft 301 kts 119°
2026-05-06 21:45 50.55572 20.61974 26066 ft 300 kts 119°
2026-05-06 21:46 50.54771 20.65006 26075 ft 301 kts 119°
2026-05-06 21:46 50.53966 20.68044 26081 ft 301 kts 119°
2026-05-06 21:46 50.53150 20.71122 25525 ft 315 kts 118°
2026-05-06 21:46 50.52309 20.74422 24592 ft 334 kts 117°
2026-05-06 21:47 50.51458 20.77812 24191 ft 331 kts 117°
2026-05-06 21:47 50.50592 20.81151 23709 ft 330 kts 118°
2026-05-06 21:47 50.49718 20.84477 23244 ft 328 kts 118°
2026-05-06 21:47 50.48859 20.87713 22857 ft 322 kts 118°
2026-05-06 21:48 50.47998 20.90935 22427 ft 319 kts 118°
2026-05-06 21:48 50.47144 20.94125 22010 ft 315 kts 118°
2026-05-06 21:48 50.46295 20.97281 21593 ft 313 kts 118°
2026-05-06 21:48 50.45451 21.00409 21178 ft 310 kts 118°
2026-05-06 21:49 50.44612 21.03506 20773 ft 308 kts 118°
2026-05-06 21:49 50.43774 21.06585 20366 ft 306 kts 119°
2026-05-06 21:49 50.42940 21.09641 19966 ft 304 kts 119°
2026-05-06 21:49 50.42107 21.12674 19550 ft 303 kts 119°
2026-05-06 21:50 50.41277 21.15692 19125 ft 297 kts 119°
2026-05-06 21:50 50.40470 21.18626 18747 ft 293 kts 120°
2026-05-06 21:50 50.39642 21.21590 18390 ft 301 kts 120°
2026-05-06 21:50 50.38804 21.24627 17935 ft 305 kts 118°
2026-05-06 21:51 50.37993 21.27699 17565 ft 304 kts 117°
2026-05-06 21:51 50.37199 21.30739 17122 ft 296 kts 117°
2026-05-06 21:51 50.36444 21.33632 16749 ft 278 kts 118°
2026-05-06 21:51 50.35730 21.36350 16411 ft 263 kts 118°
2026-05-06 21:52 50.35044 21.38930 16077 ft 251 kts 118°
2026-05-06 21:52 50.34385 21.41395 15752 ft 240 kts 119°
2026-05-06 21:52 50.33744 21.43778 15549 ft 236 kts 119°
2026-05-06 21:52 50.33129 21.46055 15106 ft 234 kts 119°
2026-05-06 21:53 50.32500 21.48396 14861 ft 232 kts 119°
2026-05-06 21:53 50.31878 21.50720 14499 ft 231 kts 118°
2026-05-06 21:53 50.31261 21.53031 14233 ft 229 kts 118°
2026-05-06 21:53 50.30648 21.55322 13913 ft 228 kts 118°
2026-05-06 21:54 50.30037 21.57599 13589 ft 226 kts 118°
2026-05-06 21:54 50.29428 21.59862 13327 ft 225 kts 118°
2026-05-06 21:54 50.28812 21.62107 12983 ft 224 kts 121°
2026-05-06 21:54 50.28062 21.64225 12752 ft 223 kts 129°
2026-05-06 21:55 50.27162 21.66211 12403 ft 225 kts 132°
2026-05-06 21:55 50.26221 21.68175 12160 ft 227 kts 131°
2026-05-06 21:55 50.25313 21.70222 11810 ft 230 kts 128°
2026-05-06 21:55 50.24467 21.72332 11540 ft 228 kts 126°
2026-05-06 21:56 50.23649 21.74467 11211 ft 231 kts 126°
2026-05-06 21:56 50.22821 21.76606 10916 ft 229 kts 126°
2026-05-06 21:56 50.21974 21.78711 10622 ft 230 kts 127°
2026-05-06 21:56 50.21101 21.80815 10299 ft 230 kts 128°
2026-05-06 21:57 50.20234 21.82915 10027 ft 230 kts 126°
2026-05-06 21:57 50.19604 21.85236 9700 ft 239 kts 108°
2026-05-06 21:57 50.19444 21.87726 9785 ft 234 kts 95°
2026-05-06 21:57 50.19418 21.90291 9808 ft 238 kts 94°
2026-05-06 21:58 50.19403 21.92880 9720 ft 242 kts 94°
2026-05-06 21:58 50.19382 21.95492 9652 ft 238 kts 94°
2026-05-06 21:58 50.19351 21.98079 9662 ft 239 kts 94°
2026-05-06 21:58 50.19317 22.00587 9666 ft 239 kts 94°
2026-05-06 21:59 50.19286 22.03162 9690 ft 239 kts 94°
2026-05-06 21:59 50.19253 22.05729 9709 ft 241 kts 94°
2026-05-06 21:59 50.19219 22.08340 9707 ft 240 kts 94°
2026-05-06 21:59 50.19191 22.10962 9688 ft 238 kts 94°
2026-05-06 22:00 50.19164 22.13545 9710 ft 238 kts 94°
2026-05-06 22:00 50.19127 22.16146 9223 ft 248 kts 94°
2026-05-06 22:00 50.19077 22.18886 8383 ft 256 kts 95°
2026-05-06 22:00 50.19019 22.21692 7548 ft 261 kts 94°
2026-05-06 22:01 50.18962 22.24576 6685 ft 272 kts 94°
2026-05-06 22:01 50.18902 22.27589 5783 ft 283 kts 95°
2026-05-06 22:01 50.18441 22.30499 5249 ft 269 kts 123°
2026-05-06 22:01 50.17206 22.32456 4926 ft 245 kts 157°
2026-05-06 22:02 50.15641 22.32946 4660 ft 226 kts 186°
2026-05-06 22:02 50.14117 22.32776 4372 ft 220 kts 190°
2026-05-06 22:02 50.12668 22.32304 4084 ft 209 kts 209°
2026-05-06 22:02 50.11637 22.30792 3826 ft 205 kts 241°
2026-05-06 22:03 50.11278 22.28648 3543 ft 210 kts 261°
2026-05-06 22:03 50.10995 22.26507 3599 ft 197 kts 248°
2026-05-06 22:03 50.10758 22.24304 3161 ft 212 kts 264°
2026-05-06 22:03 50.10733 22.22015 2864 ft 212 kts 264°
2026-05-06 22:04 50.10745 22.19709 2594 ft 210 kts 265°
2026-05-06 22:04 50.10785 22.17543 2331 ft 185 kts 264°
2026-05-06 22:04 50.10810 22.15740 2099 ft 148 kts 263°
2026-05-06 22:04 50.10823 22.14275 1908 ft 131 kts 262°
2026-05-06 22:05 50.10848 22.12868 1741 ft 128 kts 263°
2026-05-06 22:05 50.10864 22.11470 1577 ft 136 kts 265°
2026-05-06 22:05 50.10884 22.09984 1410 ft 141 kts 268°
2026-05-06 22:05 50.10908 22.08468 1202 ft 137 kts 268°
2026-05-06 22:06 50.10934 22.06972 1026 ft 144 kts 268°
2026-05-06 22:06 50.10946 22.05945 884 ft 140 kts 268°
2026-05-06 22:06 50.10962 22.04522 701 ft 131 kts 268°
2026-05-06 22:06 50.10983 22.02936 690 ft 83 kts 270°
2026-05-06 22:07 50.10989 22.02432 693 ft 56 kts 272°
2026-05-06 22:07 50.10994 22.01998 690 ft 37 kts 271°
2026-05-06 22:07 50.10999 22.01611 701 ft 36 kts 271°
2026-05-06 22:07 50.11024 22.01247 699 ft 32 kts 295°
2026-05-06 22:08 50.11105 22.01010 698 ft 8 kts 302°
2026-05-06 22:08 50.11106 22.01008 701 ft 0 kts 303°
2026-05-06 22:09 50.11114 22.00993 695 ft 3 kts 322°
2026-05-06 22:09 50.11143 22.00985 701 ft 6 kts 11°
2026-05-06 22:10 50.11167 22.01006 701 ft 4 kts 63°
2026-05-06 22:10 50.11170 22.01064 701 ft 7 kts 93°
2026-05-06 22:10 50.11169 22.01163 697 ft 11 kts 88°
2026-05-06 22:10 50.11172 22.01300 701 ft 15 kts 89°
2026-05-06 22:11 50.11167 22.01476 696 ft 19 kts 91°
2026-05-06 22:11 50.11163 22.01709 696 ft 24 kts 91°
2026-05-06 22:11 50.11159 22.01997 692 ft 29 kts 91°
2026-05-06 22:11 50.11157 22.02198 689 ft 5 kts 91°
2026-05-06 22:12 50.11156 22.02221 689 ft 4 kts 91°
2026-05-06 22:12 50.11159 22.02267 689 ft 2 kts 61°
2026-05-06 22:12 50.11191 22.02300 687 ft 8 kts 10°
2026-05-06 22:12 50.11259 22.02305 687 ft 12 kts
2026-05-06 22:13 50.11320 22.02374 689 ft 12 kts 75°
2026-05-06 22:13 50.11322 22.02395 689 ft 0 kts 82°